Location: Linz
(48.3300°N, 14.3000°E)
Time: 10:08:03
(UTC+01:00)

OTV 5 (USA 277) - Pass Details

Date: 16 November 2017
Orbit: 404 x 417 km, 43.0° (Epoch: 07 September)

Event Time Altitude Azimuth Distance (km) Brightness Sun altitude
Exits shadow 06:30:41 - 257° (WSW) 1,808 ? -7.1°
Reaches altitude 10° 06:31:47 10° 246° (WSW) 1,456 ? -6.9°
Maximum altitude 06:34:07 18° 201° (SSW) 1,061 ? -6.5°
Drops below altitude 10° 06:36:27 10° 155° (SSE) 1,452 ? -6.2°
Sets 06:38:58 0° 136° (SE) 2,310 ? -5.8°
